Wind_Speed
110 108 112 109 109 108 107 102 101 97 91 89 85 79 73 72 66 62 58 51 46 39 40 37 36 42 43 44 49 53 56 60 62 72 77 75 72 71 77 81 75 73 68 65
103 100 105 103 97 96 95 95 90 87 86 83 76 70 69 65 61 53 48 46 41 36 36 34 35 38 42 44 47 52 55 60 61 65 71 71 72 71 72 70 68 66 64 64
95 95 95 91 91 89 86 84 85 84 80 74 69 68 63 57 49 46 41 38 34 33 32 32 33 37 41 45 49 53 55 59 60 62 64 69 71 71 70 68 66 63 61 60
88 84 82 83 81 79 79 80 80 78 73 68 67 61 56 49 42 37 33 30 28 30 31 33 32 37 43 48 52 56 59 60 58 58 59 62 63 64 63 62 62 59 60 57
77 73 72 74 75 75 77 78 76 69 65 64 60 55 49 41 35 31 28 25 25 29 29 31 30 37 41 44 49 51 54 56 56 58 60 61 59 58 58 56 53 49 47 42
67 67 69 71 72 71 71 70 67 64 62 56 53 47 41 36 32 27 22 21 21 24 28 29 30 32 37 41 44 47 51 53 51 53 55 55 55 55 54 49 44 39 40 39
65 66 70 71 69 66 63 63 60 59 55 52 46 41 34 32 28 24 18 17 19 21 25 28 28 31 36 38 39 36 44 45 47 48 51 54 55 55 51 47 42 42 42 40
66 67 66 66 63 60 58 57 54 51 50 48 41 34 32 28 24 19 13 15 17 19 24 27 26 29 29 31 33 27 33 42 47 47 47 52 57 55 54 52 48 46 43 41
64 63 63 61 59 55 51 53 49 49 46 42 33 32 28 22 19 16 13 14 17 20 21 23 24 27 28 31 33 34 36 40 46 47 45 48 54 55 55 53 52 48 45 42
60 60 58 55 54 50 48 48 47 45 43 35 30 28 23 15 14 12 12 15 18 21 21 23 27 29 33 37 39 43 44 44 44 48 47 46 51 52 53 53 53 51 49 47
58 54 53 51 47 45 44 44 45 40 40 30 25 24 20 11 12 12 12 14 19 22 24 26 28 31 36 39 42 44 47 47 49 50 50 50 47 49 51 50 51 49 49 49
54 53 48 45 43 41 41 42 42 34 34 27 23 21 18 10 13 15 13 14 17 23 26 29 31 34 35 39 41 42 42 43 47 51 48 45 42 43 45 46 43 43 43 43
50 45 43 41 40 39 39 40 39 31 27 24 23 18 15 12 11 14 14 15 16 21 27 26 27 31 33 37 39 35 37 38 40 42 43 41 40 38 41 42 42 42 45 47
44 42 40 38 39 37 36 36 35 29 25 20 21 17 15 12 12 13 14 16 18 20 22 26 28 28 28 28 27 27 31 36 40 39 38 38 38 37 39 41 42 45 50 54
42 40 37 37 37 33 34 34 32 27 22 18 19 16 14 13 13 12 14 16 18 21 23 25 26 26 27 26 30 32 34 35 35 35 33 33 34 36 39 43 46 49 55 57
41 38 36 36 35 31 32 31 30 24 20 17 15 15 15 15 16 13 14 16 20 22 22 23 24 23 25 28 30 32 32 32 34 34 33 34 36 37 42 46 50 53 57 61
41 37 35 36 33 31 29 29 27 21 19 16 14 14 15 15 15 13 14 15 16 17 21 23 22 22 25 28 30 32 32 34 36 34 34 36 37 38 41 46 51 54 58 62
40 37 35 35 31 28 28 26 24 19 17 14 13 13 13 14 13 13 14 15 16 16 17 19 22 25 27 30 31 31 32 33 32 33 33 33 35 38 41 46 51 55 60 63
39 36 35 33 28 26 27 23 23 17 15 12 12 14 15 14 13 11 10 13 15 15 17 19 22 23 25 26 27 28 28 28 27 27 29 32 34 37 39 43 48 54 60 65
36 35 35 30 24 27 23 23 23 16 13 10 11 15 15 14 9 8 11 12 13 15 17 18 19 21 22 23 25 24 25 26 26 27 28 29 32 35 39 43 46 50 54 58
35 35 31 23 21 26 22 22 20 14 13 12 14 15 13 12 11 13 14 15 14 15 17 17 19 20 20 21 22 23 25 26 27 29 31 31 32 34 35 37 40 46 51 54
34 29 22 18 21 27 23 21 18 17 14 14 15 13 12 13 15 15 16 18 17 17 18 19 19 20 20 19 21 22 24 26 28 30 32 35 35 37 38 38 38 40 43 47
26 24 20 19 26 27 23 18 21 18 16 16 15 14 14 18 18 19 19 19 20 20 20 21 22 22 20 19 20 22 24 27 30 33 34 36 39 40 43 45 48 50 52 53
25 24 22 23 31 29 19 25 22 18 17 15 15 13 16 18 18 19 20 20 21 22 23 23 24 26 26 25 24 25 26 26 26 27 29 32 35 39 41 44 48 50 52 55
25 25 26 33 34 19 26 25 22 19 17 15 15 15 16 16 16 16 18 19 19 20 22 22 21 18 16 16 16 17 19 21 24 26 28 32 36 39 43 46 48 50 52 55
27 31 36 38 27 27 27 25 22 20 17 16 15 15 15 15 15 16 16 15 14 12 14 15 16 16 17 18 20 21 22 23 24 25 27 29 33 36 40 43 46 49 52 55
35 38 37 30 28 28 28 26 23 19 18 17 18 18 18 18 18 18 19 20 19 18 18 18 19 18 17 17 17 17 17 18 19 22 25 29 32 35 39 42 46 49 51 54
Wind_Direction
273 277 275 278 284 285 287 290 292 295 297 299 300 299 298 299 298 295 294 291 285 276 265 256 248 239 236 229 224 220 221 220 222 223 226 229 231 233 237 241 243 244 245 248
273 277 276 279 282 286 288 291 294 296 298 299 299 299 299 297 296 294 290 285 281 274 263 251 244 232 229 224 217 218 218 219 220 223 225 227 230 232 236 238 239 241 244 247
270 274 279 280 283 285 288 292 295 297 299 299 300 301 299 298 295 291 285 283 279 266 256 247 234 226 221 217 213 215 217 218 218 219 222 226 229 232 235 238 240 243 244 248
273 275 277 280 283 287 291 294 295 298 299 301 301 300 301 299 295 288 284 276 263 253 246 241 231 224 222 220 215 214 213 216 215 217 220 225 228 229 232 235 239 241 243 244
270 274 277 281 285 288 291 294 296 297 300 301 300 302 301 300 295 288 278 269 254 248 240 240 235 224 225 224 221 216 217 217 215 215 216 220 225 228 232 234 236 236 239 239
270 276 279 282 286 290 293 296 297 298 300 301 303 305 304 300 294 284 271 258 245 244 241 231 232 225 227 229 228 218 218 217 216 217 218 219 223 226 228 229 228 223 222 219
273 276 280 283 288 291 294 296 296 298 302 305 306 307 303 297 290 281 263 246 238 232 235 232 226 221 222 227 232 226 218 219 219 217 217 220 223 225 225 225 223 218 216 217
272 276 280 286 290 292 295 293 296 301 305 306 308 306 299 295 286 274 253 241 233 232 227 227 220 216 218 217 224 226 220 217 218 219 217 218 220 221 222 222 220 219 220 218
272 278 282 286 288 292 292 294 299 303 307 305 308 302 294 290 286 271 245 230 227 228 226 224 216 208 207 209 206 203 210 211 211 215 217 219 220 220 219 218 217 216 221 223
275 279 282 285 287 289 293 295 301 304 306 307 306 297 293 287 282 251 232 227 231 227 222 215 208 203 198 200 202 200 198 204 207 211 213 216 218 219 220 219 219 217 221 225
276 278 282 284 284 289 293 298 300 304 306 307 301 291 284 274 270 234 223 216 221 229 224 217 209 203 202 200 203 203 201 203 203 206 212 215 216 216 218 217 216 214 217 222
274 276 277 280 286 290 295 298 299 305 304 304 294 285 280 270 257 234 215 217 220 228 221 213 210 209 206 204 206 205 206 209 210 214 215 215 214 215 216 217 213 211 212 213
270 272 276 282 286 291 297 297 298 305 300 290 282 276 268 254 246 229 217 215 215 216 226 224 218 216 214 212 211 208 205 208 214 216 219 219 217 211 211 212 209 203 205 206
266 271 278 283 287 291 295 295 297 302 291 281 274 271 265 248 230 219 215 216 210 210 213 217 217 215 212 213 208 204 205 208 211 213 215 218 216 210 206 207 204 199 201 205
268 273 277 282 285 290 292 293 296 292 283 273 267 267 259 248 236 216 213 214 212 204 201 207 211 210 206 202 196 197 203 206 208 210 214 216 213 207 205 206 202 200 199 201
267 270 275 279 281 287 287 290 290 286 273 267 261 258 255 245 234 219 212 213 211 204 197 200 202 203 200 197 197 201 202 201 205 209 212 215 214 209 204 205 204 203 201 204
264 268 273 275 277 281 284 286 281 275 266 261 257 257 254 244 239 225 212 211 212 209 201 197 196 197 198 197 198 200 200 203 207 210 211 214 214 211 207 208 209 209 207 208
262 266 268 269 272 276 277 278 273 262 257 253 253 250 246 242 232 224 213 202 196 195 195 195 192 196 198 201 202 202 204 208 210 211 213 214 216 216 215 216 214 215 214 214
259 260 262 263 264 267 268 266 262 254 244 240 245 246 241 232 228 214 207 212 197 191 189 190 196 199 201 200 202 204 207 210 215 216 219 220 221 222 221 223 223 221 220 220
252 255 255 255 256 258 259 251 251 247 232 223 229 235 236 234 221 196 189 193 194 189 186 190 197 203 203 203 204 210 214 216 219 220 224 224 225 225 224 226 229 230 231 229
244 245 244 244 246 252 245 241 238 236 224 214 220 222 222 215 188 180 181 182 182 186 188 187 196 201 204 206 207 211 218 222 223 225 229 230 229 231 234 235 234 233 237 238
231 232 233 232 235 237 233 226 229 220 206 207 213 207 200 199 191 185 181 179 181 181 183 184 192 197 203 204 210 212 218 225 229 230 231 234 234 234 237 241 243 244 244 244
218 217 219 215 223 226 219 211 218 210 198 200 206 197 188 191 187 187 183 181 178 182 181 184 192 195 197 200 205 211 216 221 226 229 232 234 237 239 239 239 238 237 239 241
205 208 206 205 218 218 196 210 205 199 195 193 199 193 191 197 192 191 185 182 183 181 184 190 194 197 201 206 210 215 223 232 241 247 251 250 252 251 251 252 251 252 252 250
196 197 199 205 216 195 203 203 195 190 183 189 194 191 193 196 195 192 186 184 185 187 193 203 208 208 209 211 216 220 222 225 228 233 239 241 244 246 250 253 255 256 257 257
186 193 201 207 200 195 198 191 185 181 181 187 188 183 181 182 186 187 182 182 185 190 195 201 201 197 199 203 209 217 226 233 239 246 252 256 258 259 260 261 263 264 265 265
188 200 204 198 190 197 184 179 172 173 176 173 179 174 167 169 165 164 169 174 177 176 177 178 182 193 200 207 215 228 241 251 259 264 267 268 270 271 271 271 270 271 272 273
Height
10354 10353 10348 10342 10341 10334 10330 10322 10312 10304 10293 10284 10274 10264 10256 10245 10237 10232 10221 10217 10213 10215 10213 10217 10223 10224 10232 10241 10251 10262 10272 10282 10295 10306 10316 10329 10342 10354 10365 10375 10386 10393 10399 10407
10337 10332 10328 10325 10322 10317 10309 10302 10293 10285 10273 10263 10255 10245 10237 10229 10221 10215 10210 10204 10203 10203 10203 10209 10213 10216 10221 10228 10242 10252 10261 10269 10282 10295 10308 10320 10331 10342 10352 10362 10371 10378 10387 10394
10316 10316 10313 10307 10304 10298 10292 10284 10275 10265 10256 10247 10237 10227 10220 10213 10207 10200 10197 10196 10196 10194 10194 10199 10205 10206 10211 10220 10230 10239 10249 10258 10270 10283 10297 10307 10318 10329 10340 10349 10357 10367 10374 10380
10298 10300 10294 10290 10285 10282 10275 10267 10258 10248 10239 10231 10221 10212 10204 10197 10192 10188 10186 10186 10186 10185 10186 10187 10194 10196 10201 10206 10217 10226 10237 10247 10263 10276 10288 10298 10308 10319 10329 10337 10346 10355 10360 10364
10283 10282 10277 10272 10270 10265 10259 10250 10241 10234 10225 10218 10206 10199 10190 10184 10180 10178 10178 10177 10177 10177 10179 10180 10185 10190 10193 10201 10208 10222 10232 10242 10254 10265 10275 10285 10297 10310 10319 10325 10334 10342 10348 10356
10265 10265 10262 10256 10254 10250 10243 10233 10226 10220 10214 10203 10194 10187 10179 10173 10171 10170 10170 10169 10170 10172 10172 10174 10178 10186 10192 10197 10205 10218 10227 10237 10248 10257 10267 10279 10290 10298 10306 10316 10326 10334 10339 10348
10249 10249 10247 10242 10239 10235 10230 10222 10215 10207 10198 10189 10182 10176 10170 10166 10163 10163 10164 10162 10164 10166 10167 10170 10174 10182 10188 10194 10202 10214 10224 10233 10241 10250 10260 10271 10279 10286 10298 10308 10319 10324 10330 10339
10235 10235 10232 10230 10224 10222 10218 10208 10203 10195 10187 10180 10172 10168 10162 10160 10157 10158 10158 10156 10157 10161 10164 10166 10171 10178 10186 10194 10200 10207 10219 10226 10233 10241 10250 10258 10264 10276 10287 10296 10306 10315 10322 10330
10220 10220 10219 10216 10212 10209 10206 10196 10192 10183 10176 10169 10166 10160 10157 10155 10153 10153 10152 10150 10152 10154 10158 10164 10169 10176 10183 10187 10194 10202 10210 10217 10225 10232 10241 10248 10256 10264 10275 10285 10295 10307 10315 10323
10206 10206 10206 10204 10201 10197 10193 10185 10180 10174 10166 10162 10159 10154 10151 10149 10148 10147 10148 10148 10147 10150 10154 10159 10165 10171 10178 10182 10187 10194 10201 10209 10217 10223 10231 10240 10246 10256 10266 10276 10287 10298 10306 10313
10193 10193 10193 10192 10189 10186 10181 10175 10169 10165 10157 10155 10154 10149 10145 10144 10143 10143 10143 10147 10145 10146 10150 10155 10160 10166 10171 10177 10183 10189 10197 10203 10208 10214 10222 10229 10240 10250 10258 10268 10276 10287 10295 10302
10180 10181 10181 10180 10177 10174 10170 10165 10159 10157 10151 10148 10146 10142 10140 10139 10138 10139 10139 10141 10145 10144 10148 10153 10156 10160 10167 10173 10178 10186 10194 10200 10205 10209 10216 10226 10235 10244 10253 10261 10272 10280 10287 10294
10168 10169 10169 10168 10165 10163 10161 10155 10150 10150 10146 10142 10139 10137 10136 10134 10134 10134 10135 10138 10141 10145 10146 10148 10154 10158 10164 10168 10174 10184 10192 10198 10202 10207 10214 10223 10231 10239 10247 10255 10263 10271 10278 10285
10156 10158 10158 10157 10155 10154 10152 10146 10143 10141 10139 10137 10134 10131 10130 10130 10130 10131 10132 10135 10139 10142 10145 10148 10152 10158 10165 10170 10177 10184 10190 10195 10199 10206 10214 10219 10226 10234 10240 10247 10255 10263 10270 10278
10145 10146 10147 10147 10145 10146 10142 10139 10136 10133 10133 10132 10128 10126 10126 10126 10126 10127 10130 10133 10137 10141 10144 10148 10152 10157 10162 10169 10174 10179 10184 10190 10198 10204 10210 10215 10221 10228 10235 10241 10248 10255 10262 10269
10133 10136 10137 10137 10136 10138 10134 10132 10129 10128 10127 10127 10125 10122 10122 10123 10123 10126 10129 10132 10135 10139 10142 10145 10150 10156 10162 10166 10171 10176 10181 10188 10194 10200 10205 10210 10214 10221 10228 10233 10239 10247 10254 10261
10123 10126 10128 10128 10128 10129 10128 10126 10123 10123 10123 10122 10121 10120 10120 10120 10122 10125 10128 10131 10135 10138 10141 10145 10150 10156 10160 10164 10168 10173 10179 10185 10190 10196 10201 10204 10209 10215 10221 10227 10233 10240 10246 10251
10112 10116 10118 10119 10120 10121 10121 10119 10117 10118 10118 10117 10116 10117 10118 10118 10121 10125 10127 10130 10134 10137 10141 10145 10149 10153 10157 10161 10166 10172 10178 10183 10189 10193 10198 10202 10206 10210 10215 10220 10225 10231 10237 10241
10102 10106 10108 10110 10113 10114 10113 10113 10112 10114 10114 10114 10114 10114 10115 10116 10119 10123 10127 10130 10133 10137 10141 10145 10149 10152 10156 10162 10167 10172 10177 10181 10186 10191 10195 10198 10202 10205 10210 10214 10218 10221 10225 10230
10093 10096 10098 10102 10107 10106 10107 10107 10108 10110 10111 10111 10112 10113 10115 10117 10120 10123 10125 10129 10133 10137 10141 10145 10148 10151 10156 10161 10165 10170 10175 10179 10182 10187 10190 10193 10196 10200 10202 10206 10209 10214 10218 10223
10083 10085 10089 10097 10101 10098 10100 10102 10105 10107 10108 10108 10110 10112 10115 10117 10119 10120 10124 10127 10132 10136 10140 10143 10146 10150 10154 10159 10163 10167 10171 10175 10178 10182 10184 10187 10190 10193 10196 10200 10202 10205 10208 10213
10072 10079 10086 10092 10092 10090 10093 10098 10101 10102 10103 10105 10107 10110 10114 10116 10118 10120 10123 10127 10131 10135 10138 10142 10144 10148 10151 10155 10159 10163 10167 10170 10173 10176 10178 10180 10183 10185 10188 10191 10193 10196 10198 10200
10067 10074 10080 10084 10082 10084 10088 10096 10095 10097 10100 10102 10105 10108 10113 10114 10116 10119 10122 10126 10130 10133 10137 10140 10143 10145 10148 10152 10156 10159 10162 10164 10166 10168 10171 10173 10174 10176 10178 10178 10178 10177 10179 10181
10062 10068 10074 10076 10074 10078 10088 10087 10091 10094 10097 10101 10104 10108 10112 10114 10116 10119 10122 10125 10128 10132 10134 10137 10139 10141 10144 10147 10151 10154 10157 10160 10164 10166 10169 10170 10171 10172 10172 10171 10171 10170 10170 10169
10057 10062 10066 10066 10068 10080 10081 10085 10089 10092 10096 10099 10103 10108 10111 10114 10117 10119 10122 10125 10127 10130 10133 10135 10138 10142 10145 10148 10151 10153 10154 10155 10156 10157 10157 10157 10157 10157 10157 10157 10157 10156 10156 10154
10052 10056 10056 10059 10070 10075 10078 10084 10088 10091 10094 10099 10103 10106 10109 10113 10116 10119 10122 10125 10128 10131 10134 10136 10138 10141 10143 10145 10146 10147 10148 10150 10151 10152 10153 10152 10152 10151 10149 10148 10145 10143 10140 10138
10046 10047 10053 10063 10070 10072 10078 10083 10087 10091 10095 10099 10103 10106 10108 10112 10114 10117 10120 10123 10126 10129 10132 10133 10135 10138 10140 10142 10144 10146 10148 10148 10147 10146 10145 10144 10142 10140 10137 10134 10131 10128 10125 10121